FW4653 Weather Reports


Display with metric or nautical units.
time (UTC)temp
F
wind
direction
speed
MPH
gust
MPH
rain 1hr
in
rain 24hr
in
rain mn
in
humidity
%
barometer
mb
20260506003010 70 26 2.0 9.0 0.00 0.00 0.00 71 1005.2
20260506001538 71 337 5.0 11.0 0.00 0.00 0.00 70 1005.3
20260506000032 72 360 3.0 12.0 0.00 0.00 0.00 70 1005.6
20260505234521 74 360 5.0 12.0 0.00 0.00 0.00 69 1005.5
20260505233110 75 360 5.0 12.0 0.00 0.00 0.00 67 1005.2
20260505231552 77 15 3.0 10.0 0.00 0.00 0.00 64 1004.8
20260505230035 78 321 3.0 8.0 0.00 0.00 0.00 64 1004.7
20260505224519 80 308 3.0 8.0 0.00 0.00 0.00 62 1004.7
20260505223059 81 296 3.0 10.0 0.00 0.00 0.00 60 1004.3
20260505223003 81 295 3.0 10.0 0.00 0.00 0.00 60 1004.4
20260505221553 83 291 2.0 8.0 0.00 0.00 0.00 57 1004.0
20260505220039 84 327 4.0 9.0 0.00 0.00 0.00 56 1004.0
20260505214523 85 327 2.0 10.0 0.00 0.00 0.00 56 1003.8
20260505213011 87 300 3.0 11.0 0.00 0.00 0.00 51 1003.9
20260505211545 87 360 2.0 12.0 0.00 0.00 0.00 49 1003.9
20260505210033 87 360 4.0 10.0 0.00 0.00 0.00 48 1004.1
20260505204518 88 279 3.0 8.0 0.00 0.00 0.00 50 1004.1
20260505203058 89 248 2.0 9.0 0.00 0.00 0.00 58 1004.0
20260505201514 88 212 3.0 7.0 0.00 0.00 0.00 58 1004.1
20260505200039 88 192 1.0 7.0 0.00 0.00 0.00 59 1004.4
20260505194609 89 225 2.0 9.0 0.00 0.00 0.00 60 1004.2
20260505193024 88 242 2.0 9.0 0.00 0.00 0.00 60 1004.3
20260505191545 88 130 1.0 9.0 0.00 0.00 0.00 63 1004.1
20260505190100 87 144 4.0 8.0 0.00 0.00 0.00 62 1004.2
20260505190003 86 218 4.0 8.0 0.00 0.00 0.00 62 1004.2
20260505184534 85 207 3.0 9.0 0.00 0.00 0.00 65 1004.0
20260505183047 84 178 3.0 13.0 0.00 0.00 0.00 63 1004.4
20260505181520 84 174 4.0 10.0 0.00 0.00 0.00 64 1004.4
20260505180042 85 183 3.0 12.0 0.00 0.00 0.00 64 1004.6
20260505174514 85 213 3.0 8.0 0.00 0.00 0.00 65 1004.4
20260505173046 84 155 3.0 10.0 0.00 0.00 0.00 68 1004.3
20260505171524 82 182 5.0 10.0 0.00 0.00 0.00 69 1004.4
20260505170055 81 192 3.0 7.0 0.00 0.00 0.00 70 1004.4
20260505164534 80 190 4.0 10.0 0.00 0.00 0.00 72 1004.4
20260505163056 80 144 3.0 9.0 0.00 0.00 0.00 73 1004.3
20260505161522 78 207 4.0 10.0 0.00 0.00 0.00 74 1004.2
20260505153032 77 167 3.0 9.0 0.00 0.00 0.00 76 1004.1
20260505151506 76 215 2.0 12.0 0.00 0.00 0.00 76 1004.0
20260505130104 70 360 4.0 12.0 0.00 0.00 0.00 86 1003.6
20260505124515 70 360 4.0 12.0 0.00 0.00 0.00 87 1003.4
20260505123033 70 360 3.0 12.0 0.00 0.00 0.00 87 1003.1
20260505121509 69 360 4.0 9.0 0.00 0.00 0.00 87 1003.2
20260505120037 69 360 3.0 9.0 0.00 0.00 0.00 87 1003.1
20260505114553 69 360 3.0 11.0 0.00 0.00 0.00 87 1003.0
20260505113013 69 360 3.0 9.0 0.00 0.00 0.00 87 1002.9
20260505111553 69 360 4.0 9.0 0.00 0.00 0.00 87 1002.9
20260505101523 70 360 3.0 10.0 0.00 0.00 0.00 85 1003.2
20260505100057 70 360 4.0 10.0 0.00 0.00 0.00 85 1002.9
20260505094541 70 360 4.0 12.0 0.00 0.00 0.00 84 1003.0
20260505093051 71 360 5.0 14.0 0.00 0.00 0.00 83 1002.8
20260505091531 71 360 5.0 13.0 0.00 0.00 0.00 83 1003.2
20260505090043 71 360 5.0 14.0 0.00 0.00 0.00 82 1003.4
20260505084520 72 360 5.0 14.0 0.00 0.00 0.00 81 1003.4
20260505083031 72 360 4.0 11.0 0.00 0.00 0.00 80 1003.5
20260505081550 72 360 5.0 14.0 0.00 0.00 0.00 79 1003.4
20260505080020 73 360 4.0 14.0 0.00 0.00 0.00 77 1003.6
20260505074538 73 360 6.0 12.0 0.00 0.00 0.00 76 1003.7
20260505073057 73 360 6.0 14.0 0.00 0.00 0.00 76 1004.0
20260505071547 73 360 5.0 14.0 0.00 0.00 0.00 75 1004.3
20260505070047 74 360 5.0 13.0 0.00 0.00 0.00 74 1004.3
20260505064525 74 360 6.0 13.0 0.00 0.00 0.00 74 1004.6
20260505063038 74 360 7.0 14.0 0.00 0.00 0.00 73 1004.8
20260505061511 74 360 5.0 13.0 0.00 0.00 0.00 72 1004.7
20260505060032 75 360 4.0 10.0 0.00 0.00 0.00 72 1004.8
20260505054550 75 360 5.0 12.0 0.00 0.00 0.00 72 1004.9
20260505053012 75 360 4.0 10.0 0.00 0.00 0.00 72 1004.9
20260505051538 75 360 6.0 12.0 0.00 0.00 0.00 72 1004.9
20260505041549 74 360 5.0 10.0 0.00 0.00 0.00 73 1005.2
20260505040021 74 360 6.0 11.0 0.00 0.00 0.00 73 1005.2
20260505034532 74 360 5.0 13.0 0.00 0.00 0.00 72 1005.2
20260505033048 74 360 5.0 12.0 0.00 0.00 0.00 72 1005.2
20260505031600 75 360 4.0 13.0 0.00 0.00 0.00 72 1005.1
20260505031502 75 360 5.0 13.0 0.00 0.00 0.00 72 1005.1
20260505030038 75 360 5.0 11.0 0.00 0.00 0.00 72 1005.2
20260505024549 75 360 6.0 14.0 0.00 0.00 0.00 72 1005.2
20260505023025 74 360 4.0 13.0 0.00 0.00 0.00 72 1005.1
20260505021540 75 360 5.0 11.0 0.00 0.00 0.00 72 1005.1
20260505020055 75 360 7.0 14.0 0.00 0.00 0.00 71 1005.1
20260505014512 75 360 6.0 11.0 0.00 0.00 0.00 71 1005.0
20260505013029 75 360 5.0 11.0 0.00 0.00 0.00 70 1005.2
20260505011551 76 360 4.0 13.0 0.00 0.00 0.00 69 1005.1
20260505010038 77 360 5.0 14.0 0.00 0.00 0.00 68 1005.2
20260505004549 77 153 5.0 13.0 0.00 0.00 0.00 67 1005.4